Select NOAA-NWS Forecast Office Text Products

(Product availability varies with seasons, forecast office, and weather.)

Regional Weather Roundup for Pendleton, OR

To Select Another NWS Office Click on Map or Choose from List

County Warning Area MAP
Select Forecast Office:   Select Product:  
000
ASUS46 KPDT 201525
RWRPDT
PENDLETON REGIONAL WEATHER ROUNDUP
NATIONAL WEATHER SERVICE PENDLETON OREGON
800 AM PDT WED OCT 20 2021

NOTE: FAIR INDICATES FEW OR NO CLOUDS BELOW 12,000 FEET WITH NO
SIGNIFICANT WEATHER AND/OR OBSTRUCTIONS TO VISIBILITY.

# INDICATES UNOFFICIAL STATION AND DATA

WAZ520-201610-
EAST SLOPES OF WASHINGTON CASCADES

CITY            SKY/WX      TMP DP  RH  WIND    PRES   REMARKS
#BULLFROG       N/A         45  42  89  CALM    N/A
#EASTON DOT     N/A         45  41  86  CALM    N/A
#ELK HTS DOT    N/A         45  45  100 E2      N/A
#GLENWOOD       N/A         45  43  93  CALM    29.81R
#NILE           N/A         46  42  86  CALM    29.08S
#TROUT LAKE 1NE N/A         45  44  96  CALM    29.81R
#TROUT LAKE 1E  N/A         45  43  93  CALM    29.84R
$$

WAZ521-201610-
SIMCOE HIGHLANDS

CITY            SKY/WX      TMP DP  RH  WIND    PRES   REMARKS
#SATUS PASS DOT N/A         44  42  93  SW9     N/A
#CENTERVILLE 1SWN/A         51  41  68  S10     29.73R
#LYLE 6NE       N/A         48  44  86  SW6     29.78R
#PITT 4SE       N/A         45  43  93  W6      29.81R
$$

WAZ026-201610-
KITTITAS VALLEY

CITY            SKY/WX      TMP DP  RH  WIND    PRES   REMARKS
ELLENSBURG AP   CLOUDY      50  42  74  E8      29.76R
#ELLENSBURG CWU N/A         46  42  86  CALM    29.71R
#ELLENSBURG 3NE N/A         46  43  89  CALM    27.85R
#ELLENSBURG 1E  N/A         45  42  89  CALM    29.78S
#KITTITAS 3S    N/A         45  42  89  CALM    29.76S
#MANASTASH RDG  N/A         46  42  86  S6      N/A
#ROCKY CYN DOT  N/A         47  45  93  NE1     N/A
#RYEGRASS DOT   N/A         48  40  74  N1      N/A
$$

WAZ027-201610-
YAKIMA VALLEY

CITY            SKY/WX      TMP DP  RH  WIND    PRES   REMARKS
SUNNYSIDE AP    CLOUDY      47  43  86  CALM    29.80R
YAKIMA AIRPORT  LGT RAIN    46  46  100 W5      29.78R FOG
YAKIMA-VAGABOND MOCLDY      46  43  89  CALM    29.77R
#MABTON         N/A         48  44  86  W2      29.78R
#NACHES 2SW     N/A         44  42  93  CALM    29.75S
#OUTLOOK DOT    N/A         47  44  89  CALM    N/A
#PARKER DOT     N/A         48  45  89  CALM    N/A
#TERRACE HTS    N/A         46  44  93  CALM    29.75R
#I82 S UMTANUM RN/A         49  43  80  SE1     N/A
#UNION GAP DOT  N/A         47  45  93  N1      N/A
#ZILLAH DOT     N/A         47  N/A N/A CALM    N/A
$$

WAZ028-201610-
LOWER COLUMBIA BASIN...WASHINGTON

CITY            SKY/WX      TMP DP  RH  WIND    PRES   REMARKS
HANFORD         LGT RAIN    47  40  76  SW2     29.73R
PASCO           CLOUDY      51  45  80  CALM    29.80R
RICHLAND AWOS   CLOUDY      53  46  77  CALM    29.80R
#BASIN CITY 5SW N/A         48  44  86  CALM    29.77R
#ELTOPIA 6NW    N/A         50  45  83  CALM    28.77R
#KAHLOTUS       N/A         54  46  74  S5      29.77R
#KENNEWICK 3S   N/A         51  46  83  CALM    29.78R
#PROSSER DOT    N/A         48  45  89  CALM    N/A
#SAGEMOOR 2W    N/A         49  44  83  N1      29.64R
#TOUCHET 2S     N/A         52  48  86  CALM    29.76R
$$

WAZ029-201610-
FOOTHILLS OF THE BLUES...WASHINGTON

CITY            SKY/WX      TMP DP  RH  WIND    PRES   REMARKS
WALLA WALLA AP  MOCLDY      64  39  40  S20G28  29.76R
#CLYDE 6NW      N/A         59  45  60  E1      29.76R
#DELANEY DOT    N/A         52  46  80  E1      N/A
#LOWDEN 2SE     N/A         52  49  89  CALM    29.74R
#PRESCOTT       N/A         54  48  80  CALM    29.76R
#WALLA WALLA 5E N/A         64  42  45  SE22G30 N/A
#WHITMAN MISSIONN/A         61  47  60  CALM    29.74R
$$

WAZ030-201610-
BLUE MOUNTAINS...WASHINGTON

CITY            SKY/WX      TMP DP  RH  WIND    PRES   REMARKS
$$

ORZ009-041-WAZ024-201610-
COLUMBIA RIVER GORGE

CITY            SKY/WX      TMP DP  RH  WIND    PRES   REMARKS
HOOD RIVER AP   LGT RAIN    48  46  93  S5      29.83R
THE DALLES AP   MOCLDY      55  47  74  N6      29.79R
#CELILO DOT     N/A         55  46  72  S3      N/A
#LYLE           N/A         54  48  80  N6      29.82R
#MARYHILL       N/A         53  44  71  N1      N/A
#RUFUS DOT      N/A         54  47  77  S5      N/A

$$

ORZ510-201610-
NORTH CENTRAL OREGON

CITY            SKY/WX      TMP DP  RH  WIND    PRES   REMARKS
#ANTELOPE       N/A         49  37  63  CALM    29.67R
#COW CYN RST AREN/A         47  34  60  S13     N/A    WCI 41
#DUFUR          N/A         48  42  80  SW5     29.77R
#GRASS VALLEY 1SN/A         50  39  66  S31G45  29.74R
#KENT DOT       N/A         49  30  48  S21G30  N/A    WCI 42
#MORO SCHOOL    N/A         52  37  56  CALM    29.70R
#SHANIKO 5WSW   N/A         45  34  65  S29G39  N/A    WCI 35
#WAPANITIA AIRPON/A         51  38  61  W1      29.84R
#WASCO DOT      N/A         50  44  80  CALM    N/A
#WASCO 5NE      N/A         52  41  66  S13     29.79R
$$

ORZ511-201610-
CENTRAL OREGON

CITY            SKY/WX      TMP DP  RH  WIND    PRES   REMARKS
BEND AIRPORT    FAIR        45  36  70  SW15    29.92R WCI 38
MADRAS AIRPORT  PTCLDY      46  36  68  S16     29.91R WCI 39
PRINEVILLE AP   FAIR        45  36  70  S7      29.91R
REDMOND AIRPORT FAIR        46  36  68  S13     29.89R WCI 40
#BEND-KIM LN    N/A         42  36  79  SE5     29.79R
#CULVER         N/A         46  36  68  SE8     29.30R
#PRINEVILLE     N/A         49  37  63  SW1     29.93R

$$


ORZ509-201610-
EAST SLOPES OF OREGON CASCADES

CITY            SKY/WX      TMP DP  RH  WIND    PRES   REMARKS
SISTERS AWOS    N/A         39  34  82  CALM    29.85R
SUNRIVER AWOS   CLOUDY      37  36  96  SW9     29.95R
#BLUE BOX PASS  N/A         39  N/A N/A N1      N/A
#CAMP SHERMAN   N/A         41  35  79  CALM    29.89R
#LA PINE DOT    N/A         38  36  92  S5      N/A
#LAVA BUTTE DOT N/A         37  34  89  N2      N/A
#SISTERS ODOT   N/A         40  33  76  CALM    N/A
#TUMALO 3W      N/A         40  35  82  SW2     29.71R
#WANOGA BUTTE D N/A         31  30  96  W12     N/A    WCI 22

$$

ORZ044-201610-
LOWER COLUMBIA BASIN...OREGON

CITY            SKY/WX      TMP DP  RH  WIND    PRES   REMARKS
HERMISTON       MOCLDY      51  47  86  CALM    29.78R
#BOARDMAN SCHOOLN/A         51  46  83  CALM    29.74R
#ECHO 8SW       N/A         52  44  74  CALM    29.80R
#I-84 EX 198 DOTN/A         57  45  64  E9      N/A
#UMATILLA       N/A         52  45  77  CALM    29.69R
$$

ORZ507-201610-
NORTHERN FOOTHILLS OF THE BLUES

CITY            SKY/WX      TMP DP  RH  WIND    PRES   REMARKS
PENDLETON AIRPT MOCLDY      61  40  46  SW20G31 29.79R
#ATHENA         N/A         61  40  46  S8      29.79R
#HELIX 3N       N/A         56  44  64  S8      29.81R
#HOLDMAN 5SE    N/A         57  45  64  CALM    29.80R
#HOLDMAN 6E     N/A         56  46  69  CALM    29.57R
#M-FREEWATER 5SEN/A         62  43  50  E12G24  29.78R
#PDT SUNRIDGE   N/A         63  40  43  SW10G26 29.74R
#PENDLETON 6SE  N/A         63  39  41  S9      29.71R
#TUTUILLA       N/A         61  39  44  S3      29.83R
#UMAPINE 2E     N/A         59  47  64  SE1     29.75R
#WESTON SCHOOL  N/A         62  35  36  W8G26   29.46R

$$

ORZ508-201610-
SOUTHERN FOOTHILLS OF THE BLUES

CITY            SKY/WX      TMP DP  RH  WIND    PRES   REMARKS
#AJAX           N/A         54  36  50  S21G35  29.78R
#HEPPNER EOC    N/A         56  40  55  SE1     29.71R
#HEPPNER 4NE    N/A         53  39  59  CALM    29.76R
#RUGGS 2SW      N/A         54  37  52  S12     29.82R

$$

ORZ502-503-201610-
BLUE MOUNTAINS

CITY            SKY/WX      TMP DP  RH  WIND    PRES   REMARKS
MEACHAM         MOCLDY      51  35  54  CALM    29.86R
#BATTLE MTN DOT N/A         47  37  68  SE6     N/A
#LADD CYN SMT   N/A         48  43  83  S1      N/A
#LADD CREEK ODOTN/A         51  34  52  W6      N/A
#N POWDER DOT   N/A         49  41  74  S9      N/A
#TOLLGATE       N/A         43  36  76  S3      29.92R
#TROY SCHOOL    N/A         46  40  79  CALM    29.71F
#WESTON 4E      N/A         54  38  55  SE9     29.72R
$$

ORZ505-201610-
JOHN DAY BASIN

CITY            SKY/WX      TMP DP  RH  WIND    PRES   REMARKS
JOHN DAY        MOCLDY      53  36  52  SW10    29.93R
#DAYVILLE SCHOOLN/A         56  31  38  S5      29.86R
#MITCHELL 8NW   N/A         48  33  56  S6      29.83R
#MONUMENT HS    N/A         58  34  40  E13     29.67R
#MT. VERNON 5SE N/A         48  34  58  SE5     29.91R
$$

ORZ506-201610-
OCHOCO AND JOHN DAY HIGHLANDS

CITY            SKY/WX      TMP DP  RH  WIND    PRES   REMARKS
#BUCK CREEK DOT N/A         45  33  63  S13G25  N/A    WCI 39
#HORSE RIDGE DO N/A         40  34  79  S7      N/A
#KEYES SMT DOT  N/A         44  32  62  S12     N/A    WCI 38
#PAULINA ODOT   N/A         47  32  56  S8      N/A
#PRAIRIE CITY   N/A         54  34  47  S7      29.84R
#SENECA 9NW     N/A         42  36  79  CALM    29.86R
$$

ORZ049-201610-
GRANDE RONDE VALLEY

CITY            SKY/WX      TMP DP  RH  WIND    PRES   REMARKS
LA GRANDE       CLOUDY      53  39  59  S15     29.89R
#COVE SCHOOL    N/A         54  40  59  W7      29.90R
#ELGIN 1E       N/A         56  39  53  S7      N/A
#IMBLER SCHOOL  N/A         52  40  63  CALM    29.84R
#ISLAND CITY 4N N/A         51  49  93  SE3     29.80R
#LADD CYN DOT   N/A         52  42  69  W6      N/A
#UNION 1S       N/A         54  41  61  S5      29.85
$$

ORZ050-201610-
WALLOWA COUNTY

CITY            SKY/WX      TMP DP  RH  WIND    PRES   REMARKS
JOSEPH AIRPORT  CLOUDY      50  35  56  E8      29.91R
#IMNAHA SCHOOL  N/A         62  39  43  CALM    29.87R
#JOSEPH 3N      N/A         49  35  58  E12     29.93R WCI 44
#LOSTINE        N/A         45  38  76  CALM    29.69R
#LOSTINE 3SE    N/A         46  36  68  W3      29.96R
#MT HOWARD 8000 N/A         33  29  85  S14G30  29.88S WCI 23
#WALLOWA LAKE   N/A         45  41  86  SE1     29.92R



$$

Previous Regional Weather Roundups may be found at
NWS Pendleton, OR (PDT) Office Regional Weather Roundups.
(Click 'Previous Version' there to view past versions successively.
Some may differ only in time posted.)

San Juan, PRHonolulu, HI Lake Charles, LA Pueblo, CO Corpus Christi, TX St. Louis, MO Reno, NV Raleigh, NC  Newport/Morehead City, NC Dodge City, KS Houston/Galveston, TX San Joaquin Valley/Hanford, CA Louisville, KY Fort Worth, TX Pittsburgh, PA Austin/San Antonio, TX Sacramento, CA Jackson, MS Phoenix, AZ Northern Indiana, IN Flagstaff, AZ Tallahassee, FL Springfield, MO Riverton, WY Blacksburg, VA Sioux Falls, SD El Paso Area, NM Columbia, SC Wilmington, NC Greenville-Spartanburg, SC Eureka, CA Midland/Odessa, TX Tucson, AZ Goodland, KS Huntsville, AL Amarillo, TX Norman, OK Lubbock, TX Marquette, MI Little Rock, AR Pendleton, OR Missoula, MT Binghamton, NY Boston, MA Green Bay, WI Billings, MT Baltimore/Washington San Diego, CA Tampa Bay, FL Morristown, TN Twin Cities, MN Brownsville, TX Portland, OR Des Moines, IA Memphis, TN Pocatello, ID San Angelo, TX Jacksonville, FL Aberdeen, SD Quad Cities, IA/IL Charleston, SC New Orleans/Baton Rouge, LA Peachtree City, GA Shreveport, LA Grand Rapids, MI Medford, OR Albany, NY Wichita, KS Gray/Portland, ME Spokane, WA Boise, ID Denver/Boulder, CO Great Falls, MT Caribou, ME Key West, FL Miami-South Florida, FL New York City/Upton, NY Melbourne, FL Hastings, NE Paducah, KY Glasgow, MT Bismarck, ND Charleston WV Omaha/Valley, NE Buffalo, NY Jackson, KY Kansas City/Pleasant Hill, MO Gaylord, MI Cheyenne, WY Grand Forks, ND Detroit/Pontiac, MI Central Illinois, IL Burlington, VT Salt Lake City, UT Topeka, KS Nashville, TN Milwaukee/Sullivan, WI Albuquerque, NM Las Vegas, NV Wakefield, VA La Crosse, WI Birmingham, AL Los Angeles/Oxnard, CA Chicago, IL Seattle, WA Rapid City, SD Indianapolis, IN Philadelphia/Mount Holly, PA Mobile/Pensacola State College, PA Cleveland, OH Elko, NV Wilmington, OH Grand Junction, CO North Platte, NE Tulsa, OK San Francisco/Monterey Bay Area, CA Duluth, MN Anchorage, AK Fairbanks, AK Juneau, AK Tiyan, GU

Products Courtesy of NOAA-NWS
NWS Information Parsing Script by Ken True at Saratoga Weather - WFO and Products Scripts by SE Lincoln Weather.
Mapping by Curly at Michiana Weather and by Tom at My Mishawaka Weather.